Regional Weather Roundup
Issued by NWS

Home | Current Version | Previous Version | Text Only | Print | Product List | Glossary Off
Versions: 1 2 3 4 5 6 7 8 9 10 11 12 13 14 15 16 17 18 19 20 21 22 23 24 25 26 27 28 29 30 31 32 33 34 35 36 37 38 39 40 41 42 43 44 45 46 47 48 49 50

000
ASUS43 KLMK 200110
RWRKY
KENTUCKY REGIONAL WEATHER ROUNDUP
NATIONAL WEATHER SERVICE LOUISVILLE KY
800 PM EST FRI DEC 19 2014

NOTE "FAIR" INDICATES FEW OR NO CLOUDS BELOW 12,000 FEET
WITH NO SIGNIFICANT WEATHER AND/OR OBSTRUCTIONS TO VISIBILITY.

KYZ001>023-026-027-061>063-070>075-200200-
WESTERN AND SOUTH CENTRAL KENTUCKY

CITY           SKY/WX    TMP DP  RH WIND       PRES   REMARKS
PADUCAH        CLOUDY    38  28  67 NE6       30.25R WCI  33
HENDERSON      CLOUDY    34  25  69 NE6       30.28S WCI  29
OWENSBORO      MOCLDY    33  24  70 NE6       30.28F WCI  27
HOPKINSVILLE   PTCLDY    33  28  80 N8        30.24F WCI  27
BOWLING GREEN  CLEAR     35  24  64 CALM      30.27S
GLASGOW        PTCLDY    32  25  74 CALM      30.25F
$$

KYZ024-025-028>034-038-045-046-053-200200-
NORTH CENTRAL KENTUCKY

CITY           SKY/WX    TMP DP  RH WIND       PRES   REMARKS
LOUISVILLE/SDF MOCLDY    29  21  72 N6        30.30S WCI  23
LOUISVILLE/LOU PTCLDY    29  21  72 N6        30.31R WCI  23
FORT KNOX      CLEAR     29  22  76 N6        30.26S WCI  22
$$

KYZ035>037-039>044-047>052-055>060-089>105-200200-
NORTHEAST KENTUCKY

CITY           SKY/WX    TMP DP  RH WIND       PRES   REMARKS
LEXINGTON      PTCLDY    25  21  85 NE8       30.27F WCI  16
COVINGTON      CLOUDY    30  20  66 NW3       30.29R
FRANKFORT      PTCLDY    28  21  75 N5        30.27F WCI  23
$$

KYZ054-064>069-076>088-106>120-200200-
SOUTHEAST KENTUCKY

CITY           SKY/WX    TMP DP  RH WIND       PRES   REMARKS
JACKSON        PTCLDY    30  22  72 NE3       30.24R
LONDON         PTCLDY    33  23  66 N7        30.23S WCI  27
SOMERSET       PTCLDY    32  23  69 NE6       30.24F WCI  26
MIDDLESBORO    MOCLDY    35  28  78 CALM      30.22S
MONTICELLO     MOCLDY    31  26  81 CALM      30.26F
$$



USA.gov is the U.S. government's official web portal to all federal, state and local government web resources and services.